Weather History for KFKA - December, 2012

Change the Weather History Date:

Sunday, December 16, 2012

  Actual Average (KRST) Record (KRST)
Temperature  
Mean Temperature 28 °F 19 °F  
Max Temperature 36 °F 27 °F 52 °F (1959)
Min Temperature 19 °F 12 °F -26 °F (1932)
Degree Days  
Heating Degree Days 38 46  
Month to date heating degree days 691  
Since 1 July heating degree days 2363  
Cooling Degree Days 0 0  
Month to date cooling degree days 0  
Year to date cooling degree days 585  
Moisture  
Dew Point 28 °F    
Average Humidity 99    
Maximum Humidity 100    
Minimum Humidity 96    
Precipitation  
Precipitation 0.01 in 0.04 in 0.60 in (1940)
Month to date precipitation 0.73  
Year to date precipitation 32.52  
Snow  
Snow 0.00 in 0.40 in 9.60 in (1940)
Month to date snowfall 6.8  
Since 1 July snowfall 13.7  
Snow Depth -    
Sea Level Pressure  
Sea Level Pressure 29.67 in    
Wind  
Wind Speed 11 mph (NW)    
Max Wind Speed 15 mph    
Max Gust Speed 18 mph    
Visibility 3 miles    
Events Rain , Snow    
T = Trace of Precipitation, MM = Missing Value Source: NWS Daily Summary

Daily Weather History Graph

Daily Weather History Graph

Search for Another Location

Airport or City:

Trip Planner

Search our weather history database for the weather conditions in past years. The results will help you decide how hot, cold, wet, or windy it might be!

Date:

Astronomy

Dec. 16, 2012 Rise Set
Actual Time 7:36 AM CST 4:32 PM CST
Civil Twilight 7:03 AM CST 5:05 PM CST
Nautical Twilight 6:27 AM CST 5:41 PM CST
Astronomical Twilight 5:52 AM CST 6:16 PM CST
Moon 10:04 AM CST (12/16) 8:54 PM CST (12/16)
Length of Visible Light 10h 02m
Length of Day
8h 56m
Waxing Crescent, 16% of the Moon is Illuminated
Dec 16
Waxing Crescent
Dec 19
First Quarter
Dec 28
Full
Jan 4
Last Quarter
Jan 11
New

Hourly Weather History & Observations

Time (CST) Temp. Windchill Dew Point Humidity Pressure Visibility Wind Dir Wind Speed Gust Speed Precip Events Conditions
12:10 AM 36.7 °F 28.0 °F 36.7 °F 100% 29.52 in 7.0 mi NW 13.8 mph 18.4 mph N/A   Overcast
12:30 AM 36.1 °F 27.3 °F 36.1 °F 100% 29.52 in 7.0 mi NW 13.8 mph - N/A   Overcast
12:50 AM 35.6 °F 27.1 °F 35.6 °F 100% 29.53 in 7.0 mi WNW 12.7 mph - N/A   Overcast
1:10 AM 34.9 °F 26.6 °F 34.7 °F 99% 29.53 in 10.0 mi WNW 11.5 mph - N/A   Overcast
1:50 AM 33.8 °F 26.4 °F 33.8 °F 100% 29.54 in 7.0 mi NW 9.2 mph - N/A Rain Light Rain
2:10 AM 33.3 °F 26.4 °F 33.3 °F 100% 29.55 in 5.0 mi WNW 8.1 mph - N/A Snow Light Snow
2:50 AM 32.2 °F 23.8 °F 32.2 °F 100% 29.57 in 2.5 mi WNW 10.4 mph - 0.01 in Snow Light Snow
3:10 AM 32.0 °F 23.0 °F 32.0 °F 100% 29.58 in 2.5 mi WNW 11.5 mph - N/A Snow Light Snow
3:30 AM 32.0 °F 23.0 °F 32.0 °F 100% 29.58 in 2.0 mi WNW 11.5 mph - N/A Snow Light Snow
3:50 AM 32.0 °F 22.1 °F 32.0 °F 100% 29.59 in 3.0 mi WNW 13.8 mph - N/A Snow Light Snow
4:10 AM 32.0 °F 22.5 °F 32.0 °F 100% 29.59 in 7.0 mi WNW 12.7 mph 18.4 mph N/A   Overcast
4:30 AM 32.0 °F 22.1 °F 32.0 °F 100% 29.59 in 7.0 mi WNW 13.8 mph - N/A   Overcast
5:10 AM 32.0 °F 22.1 °F 32.0 °F 100% 29.60 in 2.5 mi WNW 13.8 mph - N/A   Overcast
5:50 AM 31.8 °F 21.8 °F 31.8 °F 100% 29.62 in 1.5 mi WNW 13.8 mph - N/A   Overcast
6:10 AM 31.6 °F 22.6 °F 31.6 °F 100% 29.62 in 1.2 mi NW 11.5 mph - N/A   Overcast
6:30 AM 31.6 °F 22.1 °F 31.6 °F 100% 29.62 in 1.2 mi NW 12.7 mph - N/A   Overcast
6:49 AM 31.5 °F 22.3 °F 31.5 °F 100% 29.63 in 1.5 mi WNW 11.5 mph 17.3 mph N/A   Overcast
7:10 AM 31.3 °F 21.6 °F 31.3 °F 100% 29.63 in 1.8 mi WNW 12.7 mph - N/A   Overcast
7:30 AM 31.1 °F 23.1 °F 31.1 °F 100% 29.63 in 2.5 mi WNW 9.2 mph 17.3 mph N/A   Overcast
7:50 AM 31.1 °F 21.9 °F 31.1 °F 100% 29.63 in 1.0 mi NW 11.5 mph - N/A   Overcast
8:09 AM 30.9 °F 22.2 °F 30.9 °F 100% 29.64 in 1.0 mi NW 10.4 mph - N/A   Overcast
8:30 AM 30.7 °F 22.6 °F 30.7 °F 100% 29.64 in 1.0 mi NW 9.2 mph - N/A   Overcast
8:50 AM 30.9 °F 23.5 °F 30.9 °F 100% 29.65 in 1.2 mi WNW 8.1 mph - N/A   Overcast
9:10 AM 30.7 °F 23.3 °F 30.7 °F 100% 29.65 in 1.2 mi NW 8.1 mph - N/A   Overcast
9:30 AM 30.6 °F 20.2 °F 30.6 °F 100% 29.65 in 1.5 mi NW 13.8 mph - N/A   Overcast
9:50 AM 30.2 °F 21.3 °F 30.2 °F 100% 29.67 in 1.5 mi WNW 10.4 mph - N/A   Overcast
10:10 AM 30.2 °F 21.3 °F 30.2 °F 100% 29.68 in 1.8 mi NW 10.4 mph - N/A   Overcast
10:30 AM 30.0 °F 21.7 °F 30.0 °F 100% 29.68 in 2.0 mi WNW 9.2 mph - N/A   Overcast
10:50 AM 30.0 °F 21.7 °F 29.8 °F 99% 29.69 in 2.0 mi West 9.2 mph - N/A   Overcast
11:30 AM 29.3 °F 19.1 °F 29.1 °F 99% 29.68 in 2.0 mi West 12.7 mph - N/A   Overcast
11:50 AM 29.1 °F 17.9 °F 28.8 °F 99% 29.69 in 2.5 mi West 15.0 mph - N/A   Overcast
12:10 PM 28.8 °F 19.0 °F 28.2 °F 98% 29.69 in 2.0 mi West 11.5 mph - N/A   Overcast
12:30 PM 27.5 °F 16.3 °F 27.0 °F 98% 29.69 in 2.0 mi West 13.8 mph 18.4 mph N/A   Overcast
12:50 PM 27.3 °F 16.1 °F 26.6 °F 97% 29.69 in 2.5 mi West 13.8 mph - N/A   Overcast
1:10 PM 26.6 °F 15.7 °F 26.2 °F 99% 29.68 in 1.2 mi WNW 12.7 mph - N/A   Overcast
1:30 PM 26.6 °F 15.7 °F 26.2 °F 99% 29.68 in 1.5 mi NW 12.7 mph - N/A   Overcast
1:50 PM 26.6 °F 16.8 °F 26.4 °F 99% 29.68 in 2.0 mi WNW 10.4 mph - N/A   Overcast
2:10 PM 27.0 °F 18.0 °F 26.6 °F 99% 29.67 in 3.0 mi NW 9.2 mph - N/A   Overcast
2:30 PM 26.8 °F 15.9 °F 26.4 °F 99% 29.68 in 3.0 mi NW 12.7 mph - N/A   Overcast
2:50 PM 26.6 °F 16.2 °F 26.2 °F 99% 29.68 in 4.0 mi NW 11.5 mph - N/A   Overcast
3:09 PM 26.6 °F 16.2 °F 26.1 °F 98% 29.68 in 4.0 mi NW 11.5 mph - N/A   Overcast
3:30 PM 26.6 °F 16.2 °F 25.9 °F 97% 29.67 in 5.0 mi NW 11.5 mph - N/A   Overcast
3:50 PM 26.6 °F 18.2 °F 25.9 °F 97% 29.68 in 4.0 mi NW 8.1 mph - N/A   Overcast
4:10 PM 26.1 °F 16.2 °F 25.5 °F 98% 29.69 in 2.0 mi NW 10.4 mph - N/A   Overcast
4:30 PM 25.7 °F 16.4 °F 25.5 °F 99% 29.69 in 1.2 mi NNW 9.2 mph - N/A   Overcast
4:50 PM 25.3 °F 14.7 °F 24.8 °F 98% 29.69 in 0.8 mi NW 11.5 mph - N/A   Overcast
5:10 PM 25.2 °F 15.7 °F 24.8 °F 99% 29.70 in 0.8 mi NW 9.2 mph - N/A   Overcast
5:50 PM 24.8 °F 14.6 °F 24.6 °F 99% 29.71 in 1.2 mi WNW 10.4 mph - N/A   Overcast
6:10 PM 24.8 °F 16.1 °F 24.3 °F 98% 29.72 in 1.2 mi NW 8.1 mph - N/A   Overcast
6:50 PM 23.9 °F 16.8 °F 23.4 °F 98% 29.73 in 2.5 mi NNW 5.8 mph - N/A   Overcast
7:09 PM 23.5 °F 11.8 °F 23.0 °F 98% 29.73 in 3.0 mi WNW 12.7 mph - N/A   Overcast
7:30 PM 22.8 °F 15.5 °F 22.1 °F 97% 29.74 in 3.0 mi NNW 5.8 mph - N/A   Overcast
7:50 PM 22.6 °F 12.6 °F 22.1 °F 98% 29.74 in 3.0 mi NW 9.2 mph - N/A   Overcast
8:10 PM 22.6 °F 14.3 °F 22.1 °F 98% 29.75 in 4.0 mi NW 6.9 mph - N/A   Overcast
8:30 PM 22.6 °F 13.4 °F 21.9 °F 97% 29.75 in 3.0 mi NW 8.1 mph - N/A   Overcast
8:50 PM 22.3 °F 13.9 °F 21.7 °F 98% 29.75 in 4.0 mi NNW 6.9 mph - N/A   Overcast
9:10 PM 21.7 °F 10.8 °F 21.0 °F 97% 29.75 in 4.0 mi NW 10.4 mph - N/A   Overcast
9:30 PM 21.7 °F 11.5 °F 20.8 °F 96% 29.76 in 4.0 mi NW 9.2 mph - N/A   Overcast
9:50 PM 21.2 °F 10.9 °F 20.3 °F 96% 29.76 in 4.0 mi NW 9.2 mph - N/A   Overcast
10:10 PM 21.2 °F 12.6 °F 20.3 °F 96% 29.76 in 4.0 mi NW 6.9 mph - N/A   Overcast
10:30 PM 20.7 °F 11.9 °F 19.8 °F 96% 29.76 in 5.0 mi NNW 6.9 mph - N/A   Overcast
10:50 PM 20.3 °F 13.8 °F 19.4 °F 96% 29.76 in 4.0 mi NNW 4.6 mph - N/A   Overcast
11:10 PM 20.8 °F 13.2 °F 19.9 °F 96% 29.76 in 5.0 mi NNW 5.8 mph - N/A   Overcast
11:30 PM 19.9 °F 11.1 °F 19.0 °F 96% 29.77 in 5.0 mi NW 6.9 mph - N/A   Overcast
11:50 PM 20.1 °F 11.3 °F 19.2 °F 96% 29.77 in 5.0 mi NNW 6.9 mph - N/A   Overcast